• In Deutschland
  • Länderverzeichnis
  • Für 7 Tage
  • Wassertemperatur
  • Satellitenkarten
  • Wetterkarte
  • Widgets
  • user-avatar
    Anmelden

    Stündliche Wetter Kitzbühel

    Heute, 28 Mai, Montag

    Zeit Temperatur Niederschläge Wind Luftdruck Luftfeuchtigkeit
    00:00 +13°C° 0 mm 2 m/S 679 mmHg 85%
    01:00 +13°C° 0 mm 2 m/S 679 mmHg 85%
    02:00 +12°C° 0 mm 2 m/S 679 mmHg 85%
    03:00 +12°C° 0 mm 2 m/S 678 mmHg 84%
    04:00 +12°C° 0 mm 2 m/S 678 mmHg 83%
    05:00 +14°C° 0 mm 2 m/S 679 mmHg 79%
    06:00 +15°C° 0 mm 1 m/S 679 mmHg 75%
    07:00 +18°C° 0 mm 1 m/S 679 mmHg 71%
    08:00 +21°C° 0 mm 1 m/S 680 mmHg 64%
    09:00 +23°C° 0 mm 1 m/S 680 mmHg 56%
    10:00 +25°C° 0 mm 1 m/S 681 mmHg 49%
    11:00 +25°C° 0,2 mm 2 m/S 680 mmHg 48%
    12:00 +26°C° 0,2 mm 2 m/S 680 mmHg 47%
    13:00 +26°C° 0,2 mm 2 m/S 680 mmHg 46%
    14:00 +26°C° 0,3 mm 2 m/S 680 mmHg 49%
    15:00 +25°C° 0,3 mm 2 m/S 679 mmHg 52%
    16:00 +25°C° 0,3 mm 2 m/S 679 mmHg 55%
    17:00 +23°C° 0,2 mm 2 m/S 679 mmHg 62%
    18:00 +21°C° 0,2 mm 2 m/S 678 mmHg 69%
    19:00 +20°C° 0,2 mm 2 m/S 678 mmHg 77%
    20:00 +18°C° 0 mm 2 m/S 678 mmHg 80%
    21:00 +17°C° 0 mm 2 m/S 678 mmHg 82%
    22:00 +15°C° 0 mm 2 m/S 678 mmHg 85%
    23:00 +15°C° 0 mm 2 m/S 678 mmHg 86%

    Morgen, 29 Mai, Dienstag

    Zeit Temperatur Niederschläge Wind Luftdruck Luftfeuchtigkeit
    00:00 +14°C° 0 mm 2 m/S 678 mmHg 86%
    01:00 +14°C° 0 mm 2 m/S 678 mmHg 87%
    02:00 +13°C° 0 mm 2 m/S 677 mmHg 86%
    03:00 +13°C° 0 mm 2 m/S 677 mmHg 86%
    04:00 +13°C° 0 mm 2 m/S 677 mmHg 85%
    05:00 +14°C° 0 mm 2 m/S 677 mmHg 81%
    06:00 +16°C° 0 mm 2 m/S 678 mmHg 76%
    07:00 +18°C° 0 mm 1 m/S 678 mmHg 72%
    08:00 +20°C° 0 mm 1 m/S 678 mmHg 65%
    09:00 +22°C° 0 mm 1 m/S 678 mmHg 58%
    10:00 +23°C° 0 mm 1 m/S 679 mmHg 51%
    11:00 +24°C° 0,1 mm 1 m/S 679 mmHg 49%
    12:00 +25°C° 0,1 mm 1 m/S 678 mmHg 46%
    13:00 +26°C° 0,1 mm 2 m/S 678 mmHg 44%
    14:00 +25°C° 0,6 mm 2 m/S 678 mmHg 50%
    15:00 +24°C° 0,6 mm 2 m/S 677 mmHg 57%
    16:00 +23°C° 0,6 mm 2 m/S 677 mmHg 63%
    17:00 +21°C° 1,9 mm 2 m/S 676 mmHg 72%
    18:00 +19°C° 1,9 mm 2 m/S 676 mmHg 81%
    19:00 +17°C° 1,9 mm 2 m/S 676 mmHg 90%
    20:00 +17°C° 0,9 mm 2 m/S 676 mmHg 92%
    21:00 +16°C° 0,9 mm 2 m/S 676 mmHg 93%
    22:00 +15°C° 0,9 mm 1 m/S 676 mmHg 95%
    23:00 +15°C° 0,3 mm 1 m/S 676 mmHg 95%

    übermorgen, 30 Mai, Mittwoch

    Zeit Temperatur Niederschläge Wind Luftdruck Luftfeuchtigkeit
    00:00 +14°C° 0,3 mm 1 m/S 676 mmHg 94%
    01:00 +14°C° 0,3 mm 1 m/S 676 mmHg 94%
    02:00 +13°C° 0,1 mm 1 m/S 675 mmHg 94%
    03:00 +13°C° 0,1 mm 1 m/S 675 mmHg 94%
    04:00 +12°C° 0,1 mm 1 m/S 675 mmHg 94%
    05:00 +14°C° 0,1 mm 1 m/S 675 mmHg 90%
    06:00 +15°C° 0,1 mm 1 m/S 676 mmHg 87%
    07:00 +18°C° 0,1 mm 1 m/S 676 mmHg 84%
    08:00 +20°C° 0,4 mm 1 m/S 676 mmHg 76%
    09:00 +22°C° 0,4 mm 1 m/S 677 mmHg 68%
    10:00 +23°C° 0,4 mm 1 m/S 677 mmHg 61%
    11:00 +24°C° 0,9 mm 1 m/S 677 mmHg 60%
    12:00 +24°C° 0,9 mm 2 m/S 677 mmHg 60%
    13:00 +24°C° 0,9 mm 2 m/S 677 mmHg 59%
    14:00 +24°C° 1,2 mm 2 m/S 676 mmHg 62%
    15:00 +24°C° 1,2 mm 2 m/S 676 mmHg 65%
    16:00 +23°C° 1,2 mm 1 m/S 676 mmHg 68%
    17:00 +22°C° 1 mm 1 m/S 676 mmHg 74%
    18:00 +21°C° 1 mm 1 m/S 675 mmHg 80%
    19:00 +20°C° 1 mm 1 m/S 675 mmHg 86%
    20:00 +19°C° 0,7 mm 1 m/S 675 mmHg 87%
    21:00 +16°C° 0,7 mm 1 m/S 675 mmHg 89%
    22:00 +15°C° 0,7 mm 1 m/S 675 mmHg 91%
    23:00 +15°C° 0,3 mm 1 m/S 675 mmHg 91%

    31 Mai, Donnerstag

    Zeit Temperatur Niederschläge Wind Luftdruck Luftfeuchtigkeit
    00:00 +14°C° 0,3 mm 1 m/S 675 mmHg 91%
    01:00 +14°C° 0,3 mm 1 m/S 675 mmHg 91%
    02:00 +13°C° 0,1 mm 1 m/S 675 mmHg 91%
    03:00 +13°C° 0,1 mm 1 m/S 675 mmHg 90%
    04:00 +13°C° 0,1 mm 1 m/S 674 mmHg 90%
    05:00 +14°C° 0,1 mm 1 m/S 675 mmHg 85%
    06:00 +16°C° 0,1 mm 1 m/S 675 mmHg 81%
    07:00 +19°C° 0,1 mm 1 m/S 676 mmHg 76%
    08:00 +20°C° 0,2 mm 1 m/S 676 mmHg 70%
    09:00 +22°C° 0,2 mm 1 m/S 676 mmHg 64%
    10:00 +24°C° 0,2 mm 1 m/S 676 mmHg 58%
    11:00 +24°C° 1,1 mm 1 m/S 676 mmHg 58%
    12:00 +25°C° 1,1 mm 1 m/S 676 mmHg 58%
    13:00 +25°C° 1,1 mm 1 m/S 676 mmHg 58%
    14:00 +24°C° 1,1 mm 1 m/S 676 mmHg 61%
    15:00 +24°C° 1,1 mm 1 m/S 676 mmHg 64%
    16:00 +24°C° 1,1 mm 1 m/S 675 mmHg 67%
    17:00 +22°C° 0,8 mm 1 m/S 675 mmHg 74%
    18:00 +21°C° 0,8 mm 1 m/S 675 mmHg 80%
    19:00 +18°C° 0,8 mm 0 m/S 675 mmHg 87%
    20:00 +17°C° 0,8 mm 0 m/S 675 mmHg 89%
    21:00 +18°C° 0,8 mm 1 m/S 675 mmHg 90%
    22:00 +16°C° 0,8 mm 1 m/S 675 mmHg 92%
    23:00 +15°C° 0,5 mm 1 m/S 675 mmHg 92%

    1 Juni, Freitag

    Zeit Temperatur Niederschläge Wind Luftdruck Luftfeuchtigkeit
    00:00 +15°C° 0,5 mm 1 m/S 675 mmHg 93%
    01:00 +14°C° 0,5 mm 1 m/S 675 mmHg 93%
    02:00 +14°C° 0,6 mm 1 m/S 675 mmHg 93%
    03:00 +14°C° 0,6 mm 1 m/S 675 mmHg 93%
    04:00 +13°C° 0,6 mm 1 m/S 675 mmHg 94%
    05:00 +15°C° 0,6 mm 1 m/S 675 mmHg 92%
    06:00 +16°C° 0,6 mm 1 m/S 676 mmHg 90%
    07:00 +18°C° 0,6 mm 1 m/S 676 mmHg 89%
    08:00 +18°C° 1,1 mm 1 m/S 676 mmHg 87%
    09:00 +19°C° 1,1 mm 1 m/S 677 mmHg 85%
    10:00 +20°C° 1,1 mm 1 m/S 677 mmHg 83%
    11:00 +20°C° 1,2 mm 1 m/S 677 mmHg 83%
    12:00 +20°C° 1,2 mm 1 m/S 677 mmHg 83%
    13:00 +20°C° 1,2 mm 1 m/S 677 mmHg 83%
    14:00 +20°C° 1,1 mm 1 m/S 677 mmHg 85%
    15:00 +20°C° 1,1 mm 1 m/S 676 mmHg 86%
    16:00 +19°C° 1,1 mm 1 m/S 676 mmHg 88%
    17:00 +19°C° 1 mm 1 m/S 677 mmHg 90%
    18:00 +16°C° 1 mm 0 m/S 677 mmHg 93%
    19:00 +15°C° 1 mm 0 m/S 677 mmHg 95%
    20:00 +15°C° 0,4 mm 0 m/S 677 mmHg 96%
    21:00 +14°C° 0,4 mm 0 m/S 677 mmHg 96%
    22:00 +14°C° 0,4 mm 0 m/S 677 mmHg 97%
    23:00 +13°C° 0,2 mm 0 m/S 677 mmHg 97%

    2 Juni, Samstag

    Zeit Temperatur Niederschläge Wind Luftdruck Luftfeuchtigkeit
    00:00 +13°C° 0,2 mm 0 m/S 677 mmHg 97%
    01:00 +13°C° 0,2 mm 0 m/S 677 mmHg 97%
    02:00 +12°C° 0,1 mm 0 m/S 677 mmHg 97%
    03:00 +12°C° 0,1 mm 0 m/S 677 mmHg 97%
    04:00 +12°C° 0,1 mm 0 m/S 678 mmHg 97%
    05:00 +13°C° 0,1 mm 0 m/S 678 mmHg 96%
    06:00 +14°C° 0,1 mm 0 m/S 678 mmHg 95%
    07:00 +15°C° 0,1 mm 0 m/S 679 mmHg 94%
    08:00 +16°C° 0,2 mm 1 m/S 679 mmHg 90%
    09:00 +18°C° 0,2 mm 1 m/S 679 mmHg 86%
    10:00 +19°C° 0,2 mm 1 m/S 679 mmHg 82%
    11:00 +20°C° 0,4 mm 1 m/S 679 mmHg 80%
    12:00 +20°C° 0,4 mm 2 m/S 679 mmHg 77%
    13:00 +20°C° 0,4 mm 2 m/S 679 mmHg 74%
    14:00 +20°C° 0,5 mm 2 m/S 679 mmHg 74%
    15:00 +21°C° 0,5 mm 2 m/S 679 mmHg 74%
    16:00 +21°C° 0,5 mm 2 m/S 679 mmHg 73%
    17:00 +20°C° 0,4 mm 2 m/S 679 mmHg 78%
    18:00 +19°C° 0,4 mm 2 m/S 679 mmHg 82%
    19:00 +19°C° 0,4 mm 1 m/S 679 mmHg 86%
    20:00 +16°C° 0,1 mm 1 m/S 679 mmHg 89%
    21:00 +15°C° 0,1 mm 1 m/S 679 mmHg 91%
    22:00 +13°C° 0,1 mm 1 m/S 680 mmHg 94%
    23:00 +13°C° 0 mm 1 m/S 679 mmHg 95%
    Mehr zeigen